User: anonymous
Location: Gipe Farm
(40.9466°N, 95.5370°W)
Time: 05:27:28
(UTC-05:00)
Language:

Cosmos 2082 Rocket - Orbit

View from above orbital plane
View from above orbital plane
View from above satellite
View from above satellite

Ground track
Ground track

The orbit data is extracted from the following two-line orbital elements,

1 20625U 90046B   14112.09072311  .00000366  00000-0  21531-3 0  6971
2 20625 071.0018 047.0019 0012796 051.9181 033.1771 14.14518530234918
Epoch (UTC): 22 April 2014 02:10:38
Eccentricity: 0.0012796
inclination: 71.0018°
perigee height: 835 km
apogee height: 853 km
right ascension of ascending node: 47.0019°
argument of perigee: 51.9181°
revolutions per day: 14.14518530
mean anomaly at epoch: 33.1771°
orbit number at epoch: 23491

The dashed part of the orbit path shows where the satellite is in the earth's shadow,  

DLR